Home   Weather   Santa Maria   Past weeks

Flag for Cabo Verde Past Weather in Santa Maria, Cabo Verde — Yesterday and Last 2 Weeks

Now
73 °F

Passing clouds.


Feels Like: 75 °F
Forecast: N/A
Wind: 9 mph from Northeast

Location: Sal

Current Time: Apr 25, 2017 at 7:35:50 pm

Latest Report: Apr 25, 2017 at 7:00 pm


Visibility: N/A

Pressure: 29.92 "Hg

Humidity: 74%

Dew Point: 64 °F

Location of Santa MariaLocation

Past Weather in Santa Maria — Graph

°F

Santa Maria Temperature Yesterday

Maximum temperature yesterday: 79 °F (at 12:00 pm)
Minimum temperature yesterday: 68 °F (at 5:00 am)
Average temperature yesterday: 73 °F

High & Low Weather Summary for the Past Weeks

 TemperatureHumidityPressure
High88 °F (Apr 12, 3:00 pm)94% (Apr 14, 5:00 am)30.07 "Hg (Apr 14, 5:00 am)
Low66 °F (Apr 20, 6:00 am)51% (Apr 25, 3:00 pm)29.86 "Hg (Apr 14, 4:00 pm)
Average74 °F68%29.95 "Hg
* Reported Apr 10 6:00 pm — Apr 25 6:00 pm, Santa Maria, Weather by CustomWeather, © 2017

Note: Actual official high and low records may vary slightly from our data, if they occured in-between our weather recording intervals... More about our weather records

Advertising

Santa Maria Weather History for the Previous 24 Hours

Scroll right to see more
 ConditionsComfort  
Time TempWeatherWind HumidityBarometerVisibility
6:00 pm
Tue, Apr 25
77 °FPassing clouds.9 mph61%29.92 "HgN/A
5:00 pm79 °FPassing clouds.8 mph58%29.92 "HgN/A
4:00 pm81 °FScattered clouds.10 mph54%29.92 "HgN/A
3:00 pm81 °FScattered clouds.10 mph51%29.95 "HgN/A
2:00 pm81 °FPassing clouds.9 mph54%29.95 "HgN/A
1:00 pm79 °FPassing clouds.10 mph61%29.98 "HgN/A
12:00 pm79 °FPassing clouds.10 mph61%29.98 "HgN/A
11:00 am79 °FPassing clouds.9 mph61%29.98 "HgN/A
10:00 am75 °FPassing clouds.10 mph69%29.98 "HgN/A
9:00 am73 °FPassing clouds.10 mph74%29.98 "HgN/A
8:00 am72 °FScattered clouds.12 mph78%29.98 "HgN/A
7:00 am70 °FScattered clouds.10 mph83%29.95 "HgN/A
6:00 am70 °FScattered clouds.9 mph83%29.95 "HgN/A
4:00 am70 °FPassing clouds.9 mph83%29.95 "HgN/A
3:00 am70 °FPassing clouds.9 mph83%29.95 "HgN/A
2:00 am70 °FPassing clouds.9 mph83%29.95 "HgN/A
1:00 am70 °FPassing clouds.7 mph83%29.98 "HgN/A
12:00 am70 °FPassing clouds.6 mph83%29.98 "HgN/A
11:00 pm
Mon, Apr 24
70 °FPassing clouds.8 mph83%30.01 "HgN/A
10:00 pm70 °FPassing clouds.9 mph83%29.98 "HgN/A
9:00 pm70 °FPassing clouds.10 mph83%29.98 "HgN/A
8:00 pm72 °FPassing clouds.13 mph78%29.95 "HgN/A
7:00 pm72 °FPassing clouds.15 mph78%29.95 "HgN/A
Weather by CustomWeather, © 2017

See weather overviewHow to use our weather pages